N4ASP-13 Weather Reports


time (UTC)temp
F
wind
direction
speed
knots
gust
knots
rain 1hr
in
rain 24hr
in
rain mn
in
humidity
%
barometer
mb
20260503223732 63 173 0.9 5.2 0.00 0.00 0.00 38 1015.4
20260503223633 63 328 0.9 5.2 0.00 0.00 0.00 39 1015.4
20260503223532 63 242 0.9 5.2 0.00 0.00 0.00 38 1015.5
20260503223430 63 242 0.9 5.2 0.00 0.00 0.00 37 1015.4
20260503223329 63 241 0.9 5.2 0.00 0.00 0.00 39 1015.4
20260503223221 63 192 0.9 5.2 0.00 0.00 0.00 38 1015.4
20260503223119 63 190 0.9 5.2 0.00 0.00 0.00 37 1015.5
20260503223020 64 190 0.9 5.2 0.00 0.00 0.00 37 1015.5
20260503222919 64 191 0.9 5.2 0.00 0.00 0.00 37 1015.4
20260503222819 64 191 0.9 5.2 0.00 0.00 0.00 36 1015.5
20260503222713 64 191 0.9 5.2 0.00 0.00 0.00 36 1015.4
20260503222612 64 191 1.7 5.2 0.00 0.00 0.00 36 1015.5
20260503222513 64 194 1.7 5.2 0.00 0.00 0.00 36 1015.4
20260503222413 64 190 0.9 4.3 0.00 0.00 0.00 37 1015.5
20260503222313 64 297 0.9 4.3 0.00 0.00 0.00 36 1015.5
20260503222206 64 299 0.9 4.3 0.00 0.00 0.00 36 1015.5
20260503222106 64 310 0.9 4.3 0.00 0.00 0.00 36 1015.4
20260503222007 64 291 0.9 4.3 0.00 0.00 0.00 37 1015.5
20260503221907 64 289 0.9 4.3 0.00 0.00 0.00 36 1015.5
20260503221807 64 290 0.9 4.3 0.00 0.00 0.00 35 1015.5
20260503221657 64 289 0.9 4.3 0.00 0.00 0.00 36 1015.4
20260503221557 64 171 0.9 4.3 0.00 0.00 0.00 37 1015.4
20260503221456 64 173 0.9 5.2 0.00 0.00 0.00 36 1015.5
20260503221357 64 173 0.9 5.2 0.00 0.00 0.00 35 1015.4
20260503221256 64 173 0.9 5.2 0.00 0.00 0.00 36 1015.6
20260503221157 64 171 0.9 5.2 0.00 0.00 0.00 37 1015.5
20260503221055 64 169 0.9 5.2 0.00 0.00 0.00 37 1015.5
20260503220954 64 169 1.7 5.2 0.00 0.00 0.00 37 1015.5
20260503220853 64 169 1.7 5.2 0.00 0.00 0.00 37 1015.5
20260503220751 64 169 1.7 5.2 0.00 0.00 0.00 35 1015.5
20260503220651 64 169 1.7 5.2 0.00 0.00 0.00 35 1015.5
20260503220548 64 171 0.9 5.2 0.00 0.00 0.00 36 1015.5
20260503220448 64 177 0.9 3.5 0.00 0.00 0.00 37 1015.6
20260503220347 64 178 0.9 3.5 0.00 0.00 0.00 37 1015.5
20260503220245 64 259 1.7 5.2 0.00 0.00 0.00 35 1015.5
20260503220137 64 232 1.7 5.2 0.00 0.00 0.00 35 1015.6
20260503220038 64 244 1.7 5.2 0.00 0.00 0.00 37 1015.5
20260503215939 64 123 1.7 5.2 0.00 0.00 0.00 37 1015.5
20260503215837 64 188 1.7 5.2 0.00 0.00 0.00 36 1015.6
20260503215734 64 188 1.7 5.2 0.00 0.00 0.00 36 1015.6
20260503215628 64 178 1.7 5.2 0.00 0.00 0.00 37 1015.5
20260503215528 64 175 1.7 5.2 0.00 0.00 0.00 37 1015.5
20260503215428 64 175 1.7 5.2 0.00 0.00 0.00 36 1015.5
20260503215328 64 163 1.7 4.3 0.00 0.00 0.00 37 1015.5
20260503215228 64 163 1.7 4.3 0.00 0.00 0.00 37 1015.5
20260503215127 64 119 1.7 4.3 0.00 0.00 0.00 37 1015.6
20260503215027 64 121 1.7 4.3 0.00 0.00 0.00 37 1015.6
20260503214924 64 198 1.7 4.3 0.00 0.00 0.00 37 1015.6
20260503214824 64 272 1.7 6.1 0.00 0.00 0.00 37 1015.6
20260503214723 64 272 1.7 6.1 0.00 0.00 0.00 35 1015.6
20260503214615 64 329 1.7 6.1 0.00 0.00 0.00 35 1015.7
20260503214516 64 219 1.7 6.1 0.00 0.00 0.00 35 1015.7
20260503214414 64 126 1.7 6.1 0.00 0.00 0.00 38 1015.7
20260503214313 64 131 1.7 6.1 0.00 0.00 0.00 36 1015.7
20260503214212 64 131 1.7 6.1 0.00 0.00 0.00 36 1015.7
20260503214106 64 131 1.7 6.1 0.00 0.00 0.00 36 1015.7
20260503214005 64 131 0.9 6.1 0.00 0.00 0.00 36 1015.7
20260503213906 64 129 0.9 6.1 0.00 0.00 0.00 36 1015.7
20260503213806 64 168 0.9 5.2 0.00 0.00 0.00 37 1015.7
20260503213706 64 131 0.0 5.2 0.00 0.00 0.00 36 1015.7
20260503213601 64 156 0.0 5.2 0.00 0.00 0.00 35 1015.7
20260503213500 65 163 0.0 0.0 0.00 0.00 0.00 34 1015.7
20260503213401 65 134 0.0 0.0 0.00 0.00 0.00 36 1015.7
20260503213302 65 188 0.0 2.6 0.00 0.00 0.00 35 1015.8
20260503213201 65 191 0.9 2.6 0.00 0.00 0.00 36 1015.8
20260503213050 65 157 0.9 2.6 0.00 0.00 0.00 34 1015.9
20260503212949 65 160 0.9 2.6 0.00 0.00 0.00 33 1015.8
20260503212850 65 217 0.9 2.6 0.00 0.00 0.00 33 1015.8
20260503212749 65 217 0.9 2.6 0.00 0.00 0.00 34 1015.9
20260503212651 65 188 0.9 4.3 0.00 0.00 0.00 36 1015.8
20260503212543 65 185 0.9 4.3 0.00 0.00 0.00 38 1015.9
20260503212444 65 115 0.9 4.3 0.00 0.00 0.00 35 1015.8
20260503212344 65 115 0.9 4.3 0.00 0.00 0.00 37 1015.9
20260503212244 65 103 0.9 4.3 0.00 0.00 0.00 37 1015.9
20260503212145 65 250 0.9 4.3 0.00 0.00 0.00 37 1015.8
20260503212042 65 234 0.9 4.3 0.00 0.00 0.00 38 1015.9
20260503211941 65 188 0.9 4.3 0.00 0.00 0.00 37 1015.9
20260503211842 65 190 0.0 4.3 0.00 0.00 0.00 36 1015.9
20260503211741 65 231 0.0 4.3 0.00 0.00 0.00 35 1015.8
20260503211641 65 355 0.0 2.6 0.00 0.00 0.00 35 1015.9
20260503211533 65 11 0.0 0.0 0.00 0.00 0.00 36 1016.0
20260503211432 65 11 0.0 0.0 0.00 0.00 0.00 36 1016.0
20260503211333 65 9 0.0 0.0 0.00 0.00 0.00 36 1016.1
20260503211231 64 153 0.0 0.0 0.00 0.00 0.00 37 1016.1
20260503211128 64 161 0.0 0.0 0.00 0.00 0.00 36 1016.1
20260503211027 64 281 0.0 0.0 0.00 0.00 0.00 36 1016.1
20260503210926 64 28 0.0 0.0 0.00 0.00 0.00 36 1016.0
20260503210825 64 261 0.0 0.0 0.00 0.00 0.00 35 1016.0
20260503210725 64 342 0.0 0.0 0.00 0.00 0.00 35 1016.1
20260503210623 64 237 0.0 0.0 0.00 0.00 0.00 35 1016.1
20260503210524 64 146 0.0 0.0 0.00 0.00 0.00 35 1016.0
20260503210419 64 212 0.0 0.0 0.00 0.00 0.00 34 1016.0
20260503210320 64 167 0.0 0.0 0.00 0.00 0.00 33 1016.1
20260503210219 64 173 0.0 0.0 0.00 0.00 0.00 33 1016.0
20260503210116 64 173 0.0 0.0 0.00 0.00 0.00 35 1016.0
20260503210007 64 172 0.0 0.0 0.00 0.00 0.00 36 1016.1
20260503205906 64 167 0.0 0.0 0.00 0.00 0.00 37 1016.1
20260503205807 64 173 0.0 0.0 0.00 0.00 0.00 35 1016.1
20260503205707 64 162 0.0 0.0 0.00 0.00 0.00 35 1016.1
20260503205607 64 151 0.0 0.0 0.00 0.00 0.00 36 1016.0
20260503205500 64 198 0.0 0.0 0.00 0.00 0.00 34 1016.0
20260503205400 64 182 0.0 0.0 0.00 0.00 0.00 35 1016.1
20260503205303 64 182 0.0 0.0 0.00 0.00 0.00 35 1016.1
20260503205200 64 198 0.0 0.0 0.00 0.00 0.00 36 1016.1
20260503205101 64 163 0.0 0.0 0.00 0.00 0.00 37 1016.1
20260503204957 65 140 0.0 0.0 0.00 0.00 0.00 35 1016.1
20260503204857 65 145 0.0 0.0 0.00 0.00 0.00 35 1016.0
20260503204756 65 163 0.0 0.0 0.00 0.00 0.00 34 1016.1
20260503204657 65 139 0.0 0.0 0.00 0.00 0.00 35 1016.1
20260503204555 65 196 0.0 0.0 0.00 0.00 0.00 35 1016.1
20260503204446 65 145 0.0 0.0 0.00 0.00 0.00 37 1016.1
20260503204346 65 119 0.0 0.0 0.00 0.00 0.00 35 1016.1
20260503204246 65 202 0.0 0.0 0.00 0.00 0.00 36 1016.1
20260503204147 65 150 0.0 0.0 0.00 0.00 0.00 34 1016.1
20260503204044 65 161 0.0 0.0 0.00 0.00 0.00 35 1016.1
20260503203940 65 146 0.0 0.0 0.00 0.00 0.00 35 1016.2
20260503203839 65 200 0.0 0.0 0.00 0.00 0.00 36 1016.1
20260503203738 65 107 0.0 0.0 0.00 0.00 0.00 35 1016.1
20260503203640 65 64 0.0 0.0 0.00 0.00 0.00 35 1016.2
20260503203538 65 148 0.0 0.0 0.00 0.00 0.00 33 1016.2
20260503203433 65 171 0.0 0.0 0.00 0.00 0.00 33 1016.2
20260503203331 65 98 0.0 0.0 0.00 0.00 0.00 32 1016.2
20260503203234 65 96 0.0 0.0 0.00 0.00 0.00 31 1016.2
20260503203132 65 340 0.0 0.0 0.00 0.00 0.00 31 1016.2
20260503203033 65 279 0.0 0.0 0.00 0.00 0.00 33 1016.2
20260503202922 64 93 0.0 5.2 0.00 0.00 0.00 31 1016.2
20260503202822 65 147 0.0 5.2 0.00 0.00 0.00 32 1016.3
20260503202723 65 119 0.0 5.2 0.00 0.00 0.00 32 1016.3
20260503202623 65 132 0.0 5.2 0.00 0.00 0.00 31 1016.2
20260503202523 65 144 0.0 5.2 0.00 0.00 0.00 32 1016.2
20260503202420 65 144 0.0 5.2 0.00 0.00 0.00 30 1016.2
20260503202320 64 147 0.0 5.2 0.00 0.00 0.00 31 1016.2
20260503202221 65 144 0.0 5.2 0.00 0.00 0.00 30 1016.3
20260503202118 65 66 0.9 5.2 0.00 0.00 0.00 31 1016.2
20260503202016 64 155 0.9 5.2 0.00 0.00 0.00 29 1016.3
20260503201917 64 155 1.7 7.8 0.00 0.00 0.00 30 1016.3
20260503201815 65 103 1.7 7.8 0.00 0.00 0.00 31 1016.3
20260503201713 65 306 1.7 7.8 0.00 0.00 0.00 29 1016.3
20260503201613 64 306 1.7 7.8 0.00 0.00 0.00 30 1016.4
20260503201511 64 150 2.6 7.8 0.00 0.00 0.00 30 1016.3
20260503201359 64 150 2.6 7.8 0.00 0.00 0.00 30 1016.3
20260503201300 64 142 2.6 7.8 0.00 0.00 0.00 32 1016.3
20260503201200 64 151 2.6 7.8 0.00 0.00 0.00 30 1016.4
20260503201100 64 198 2.6 7.8 0.00 0.00 0.00 29 1016.4
20260503201001 64 175 1.7 7.8 0.00 0.00 0.00 32 1016.4
20260503200854 64 248 1.7 6.1 0.00 0.00 0.00 31 1016.4
20260503200755 64 201 1.7 6.1 0.00 0.00 0.00 33 1016.5
20260503200655 64 201 0.9 6.1 0.00 0.00 0.00 30 1016.5
20260503200555 64 204 0.9 6.1 0.00 0.00 0.00 29 1016.4
20260503200454 64 196 0.9 6.1 0.00 0.00 0.00 30 1016.5
20260503200349 64 267 0.0 5.2 0.00 0.00 0.00 30 1016.5
20260503200249 64 110 0.0 2.6 0.00 0.00 0.00 30 1016.5
20260503200149 64 142 0.0 2.6 0.00 0.00 0.00 29 1016.6
20260503200049 64 141 0.0 2.6 0.00 0.00 0.00 30 1016.6
20260503195948 64 104 0.0 0.0 0.00 0.00 0.00 32 1016.6
20260503195841 64 90 0.0 0.0 0.00 0.00 0.00 30 1016.6
20260503195738 64 307 0.0 0.0 0.00 0.00 0.00 28 1016.6
20260503195638 63 306 0.0 0.0 0.00 0.00 0.00 28 1016.6
20260503195537 64 287 0.0 0.0 0.00 0.00 0.00 28 1016.7
20260503195438 64 304 0.0 0.0 0.00 0.00 0.00 28 1016.9
20260503195332 64 265 0.0 0.0 0.00 0.00 0.00 29 1016.7
20260503195232 64 300 0.0 0.0 0.00 0.00 0.00 29 1016.7
20260503195133 64 286 0.0 5.2 0.00 0.00 0.00 28 1016.7
20260503195032 64 283 0.0 5.2 0.00 0.00 0.00 31 1016.7
20260503194933 63 330 0.0 5.2 0.00 0.00 0.00 30 1016.7
20260503194829 63 293 0.9 5.2 0.00 0.00 0.00 31 1016.7
20260503194726 63 254 0.9 5.2 0.00 0.00 0.00 31 1016.6
20260503194626 63 241 0.9 5.2 0.00 0.00 0.00 31 1016.6
20260503194527 63 116 0.9 5.2 0.00 0.00 0.00 31 1016.6
20260503194428 63 170 1.7 5.2 0.00 0.00 0.00 30 1016.7
20260503194320 63 170 1.7 5.2 0.00 0.00 0.00 28 1016.7
20260503194220 63 170 1.7 5.2 0.00 0.00 0.00 30 1016.7
20260503194120 63 112 1.7 6.1 0.00 0.00 0.00 31 1016.7
20260503194018 62 110 1.7 6.1 0.00 0.00 0.00 30 1016.7
20260503193917 62 110 1.7 6.1 0.00 0.00 0.00 29 1016.7
20260503193815 62 110 1.7 6.1 0.00 0.00 0.00 28 1016.7
20260503193714 63 111 1.7 6.1 0.00 0.00 0.00 30 1016.7
20260503193611 63 119 1.7 6.1 0.00 0.00 0.00 27 1016.9
20260503193512 63 120 1.7 8.7 0.00 0.00 0.00 27 1016.9
20260503193411 63 128 1.7 8.7 0.00 0.00 0.00 28 1016.9
20260503193305 63 243 1.7 8.7 0.00 0.00 0.00 29 1016.9
20260503193204 63 287 1.7 8.7 0.00 0.00 0.00 32 1016.9
20260503193105 63 287 1.7 8.7 0.00 0.00 0.00 31 1016.9
20260503193005 63 310 2.6 8.7 0.00 0.00 0.00 31 1017.0
20260503192904 63 355 2.6 8.7 0.00 0.00 0.00 29 1017.0
20260503192758 62 342 2.6 8.7 0.00 0.00 0.00 30 1017.0
20260503192658 62 342 2.6 8.7 0.00 0.00 0.00 28 1016.9
20260503192556 62 342 2.6 8.7 0.00 0.00 0.00 29 1017.0
20260503192457 62 348 3.5 8.7 0.00 0.00 0.00 31 1016.9
20260503192354 62 298 3.5 10.4 0.00 0.00 0.00 30 1017.0
20260503192250 62 298 3.5 10.4 0.00 0.00 0.00 31 1016.9
20260503192147 62 348 3.5 10.4 0.00 0.00 0.00 32 1016.9
20260503192049 62 321 3.5 10.4 0.00 0.00 0.00 31 1017.0
20260503191948 62 313 2.6 10.4 0.00 0.00 0.00 30 1016.9
20260503191848 62 280 3.5 10.4 0.00 0.00 0.00 28 1017.0
20260503191742 62 200 3.5 10.4 0.00 0.00 0.00 30 1016.9
20260503191642 62 197 3.5 10.4 0.00 0.00 0.00 29 1017.0
20260503191542 62 303 3.5 10.4 0.00 0.00 0.00 29 1017.0
20260503191442 62 291 3.5 10.4 0.00 0.00 0.00 30 1017.1
20260503191342 62 332 2.6 7.8 0.00 0.00 0.00 29 1017.0
20260503191232 62 304 2.6 7.8 0.00 0.00 0.00 29 1017.1
20260503191132 62 314 2.6 7.8 0.00 0.00 0.00 29 1017.0
20260503191033 62 201 2.6 7.8 0.00 0.00 0.00 30 1017.1
20260503190933 62 314 2.6 7.8 0.00 0.00 0.00 31 1017.1
20260503190832 62 336 2.6 7.8 0.00 0.00 0.00 32 1017.1
20260503190727 62 333 2.6 7.8 0.00 0.00 0.00 31 1017.1
20260503190626 62 146 2.6 7.8 0.00 0.00 0.00 31 1017.1
20260503190527 62 49 2.6 7.8 0.00 0.00 0.00 31 1017.1
20260503190425 62 38 2.6 10.4 0.00 0.00 0.00 30 1017.1
20260503190327 62 319 2.6 10.4 0.00 0.00 0.00 31 1017.1
20260503190221 62 315 2.6 10.4 0.00 0.00 0.00 31 1017.2
20260503190120 62 347 2.6 10.4 0.00 0.00 0.00 34 1017.1
20260503190021 62 5 2.6 10.4 0.00 0.00 0.00 31 1017.3
20260503185921 62 349 2.6 10.4 0.00 0.00 0.00 32 1017.2
20260503185821 62 196 2.6 10.4 0.00 0.00 0.00 31 1017.2
20260503185713 62 319 2.6 10.4 0.00 0.00 0.00 30 1017.2
20260503185611 62 251 2.6 10.4 0.00 0.00 0.00 31 1017.3
20260503185510 62 234 2.6 10.4 0.00 0.00 0.00 30 1017.3
20260503185410 62 318 2.6 7.8 0.00 0.00 0.00 33 1017.3
20260503185310 62 253 2.6 7.8 0.00 0.00 0.00 31 1017.3
20260503185203 62 42 2.6 7.8 0.00 0.00 0.00 34 1017.3
20260503185103 62 355 2.6 7.8 0.00 0.00 0.00 34 1017.3
20260503185005 62 193 2.6 7.8 0.00 0.00 0.00 34 1017.4
20260503184904 62 263 2.6 7.8 0.00 0.00 0.00 32 1017.3
20260503184804 62 191 2.6 7.8 0.00 0.00 0.00 33 1017.4
20260503184657 62 169 2.6 7.8 0.00 0.00 0.00 33 1017.4
20260503184558 61 227 2.6 7.8 0.00 0.00 0.00 36 1017.4
20260503184459 61 146 3.5 7.8 0.00 0.00 0.00 37 1017.5
20260503184358 61 152 3.5 7.8 0.00 0.00 0.00 34 1017.4
20260503184258 61 281 3.5 7.8 0.00 0.00 0.00 33 1017.5
20260503184149 61 136 3.5 7.8 0.00 0.00 0.00 33 1017.5
20260503184048 61 345 4.3 8.7 0.00 0.00 0.00 34 1017.5
20260503183949 61 186 3.5 8.7 0.00 0.00 0.00 33 1017.4
20260503183848 60 245 3.5 8.7 0.00 0.00 0.00 32 1017.5
20260503183749 60 355 3.5 8.7 0.00 0.00 0.00 35 1017.5
20260503183642 61 273 3.5 8.7 0.00 0.00 0.00 34 1017.6
20260503183542 61 344 3.5 8.7 0.00 0.00 0.00 33 1017.5
20260503183443 61 329 3.5 8.7 0.00 0.00 0.00 33 1017.6
20260503183342 61 338 3.5 8.7 0.00 0.00 0.00 33 1017.5
20260503183243 61 5 3.5 8.7 0.00 0.00 0.00 33 1017.5
20260503183137 61 326 3.5 8.7 0.00 0.00 0.00 33 1017.6
20260503183035 61 329 3.5 7.0 0.00 0.00 0.00 32 1017.7
20260503182937 61 279 2.6 7.0 0.00 0.00 0.00 33 1017.7
20260503182835 61 301 3.5 7.8 0.00 0.00 0.00 37 1017.7
20260503182736 61 355 3.5 8.7 0.00 0.00 0.00 34 1017.7
20260503182629 61 121 3.5 8.7 0.00 0.00 0.00 34 1017.6
20260503182526 60 320 3.5 8.7 0.00 0.00 0.00 34 1017.7
20260503182427 60 311 3.5 8.7 0.00 0.00 0.00 33 1017.7
20260503182325 60 306 3.5 8.7 0.00 0.00 0.00 33 1017.7
20260503182227 60 306 3.5 8.7 0.00 0.00 0.00 35 1017.8
20260503182120 60 332 3.5 8.7 0.00 0.00 0.00 34 1017.8
20260503182020 60 269 3.5 8.7 0.00 0.00 0.00 33 1017.8
20260503181921 60 315 3.5 8.7 0.00 0.00 0.00 33 1017.8
20260503181820 60 321 3.5 8.7 0.00 0.00 0.00 37 1017.8
20260503181721 60 338 3.5 8.7 0.00 0.00 0.00 35 1017.9
20260503181620 60 321 3.5 8.7 0.00 0.00 0.00 34 1017.8
20260503181518 60 312 3.5 8.7 0.00 0.00 0.00 34 1017.9
20260503181418 60 279 2.6 8.7 0.00 0.00 0.00 35 1017.9
20260503181317 60 310 3.5 8.7 0.00 0.00 0.00 33 1017.9
20260503181215 60 80 3.5 8.7 0.00 0.00 0.00 35 1017.9
20260503181103 60 298 3.5 8.7 0.00 0.00 0.00 35 1017.9
20260503181004 60 305 3.5 8.7 0.00 0.00 0.00 34 1017.9
20260503180905 60 299 3.5 8.7 0.00 0.00 0.00 34 1017.9
20260503180805 60 298 4.3 10.4 0.00 0.00 0.00 36 1017.9
20260503180704 60 355 4.3 10.4 0.00 0.00 0.00 36 1018.0
20260503180558 60 11 4.3 10.4 0.00 0.00 0.00 35 1017.9
20260503180458 59 11 5.2 10.4 0.00 0.00 0.00 36 1017.9
20260503180358 59 19 5.2 10.4 0.00 0.00 0.00 34 1017.9
20260503180258 59 345 6.1 10.4 0.00 0.00 0.00 33 1017.9
20260503180159 59 302 6.1 10.4 0.00 0.00 0.00 33 1018.0
20260503180053 60 297 5.2 10.4 0.00 0.00 0.00 32 1017.9
20260503175951 60 270 5.2 10.4 0.00 0.00 0.00 33 1018.0
20260503175853 60 271 4.3 10.4 0.00 0.00 0.00 32 1017.9
20260503175751 60 0 3.5 9.6 0.00 0.00 0.00 33 1018.0
20260503175652 60 319 3.5 9.6 0.00 0.00 0.00 33 1018.1
20260503175548 60 302 3.5 9.6 0.00 0.00 0.00 34 1018.1
20260503175448 60 317 2.6 9.6 0.00 0.00 0.00 34 1018.0
20260503175349 60 5 2.6 7.8 0.00 0.00 0.00 36 1018.0
20260503175247 60 0 2.6 7.8 0.00 0.00 0.00 35 1018.1
20260503175149 60 355 2.6 7.8 0.00 0.00 0.00 39 1018.0
20260503175047 60 22 1.7 7.8 0.00 0.00 0.00 35 1018.0
20260503174948 60 338 1.7 7.8 0.00 0.00 0.00 35 1018.1
20260503174849 60 281 1.7 7.8 0.00 0.00 0.00 35 1018.1
20260503174747 60 281 2.6 7.8 0.00 0.00 0.00 34 1018.1
20260503174649 60 334 2.6 7.8 0.00 0.00 0.00 34 1018.0
20260503174549 60 284 2.6 7.8 0.00 0.00 0.00 33 1018.1
20260503174447 60 285 2.6 7.8 0.00 0.00 0.00 32 1018.2
20260503174346 60 287 2.6 7.8 0.00 0.00 0.00 33 1018.2
20260503174245 60 288 2.6 7.8 0.00 0.00 0.00 32 1018.2
20260503174145 60 287 1.7 7.8 0.00 0.00 0.00 34 1018.1
20260503174045 60 302 1.7 7.0 0.00 0.00 0.00 33 1018.1
20260503173945 60 355 1.7 7.0 0.00 0.00 0.00 33 1018.2
20260503173840 60 254 1.7 7.0 0.00 0.00 0.00 35 1018.2
20260503173739 60 254 1.7 7.0 0.00 0.00 0.00 34 1018.2
20260503173640 60 225 2.6 7.0 0.00 0.00 0.00 35 1018.2
20260503173538 60 236 2.6 7.0 0.00 0.00 0.00 35 1018.2
20260503173438 59 236 2.6 7.0 0.00 0.00 0.00 39 1018.2
20260503173331 59 207 2.6 7.0 0.00 0.00 0.00 38 1018.3
20260503173232 59 295 2.6 7.0 0.00 0.00 0.00 37 1018.3
20260503173132 59 22 2.6 7.0 0.00 0.00 0.00 36 1018.3
20260503173033 59 334 2.6 7.0 0.00 0.00 0.00 37 1018.3
20260503172932 59 18 2.6 7.0 0.00 0.00 0.00 39 1018.3
20260503172826 59 49 2.6 7.0 0.00 0.00 0.00 40 1018.3
20260503172726 58 36 2.6 7.0 0.00 0.00 0.00 36 1018.2
20260503172623 59 138 2.6 7.0 0.00 0.00 0.00 37 1018.3
20260503172525 58 202 1.7 7.0 0.00 0.00 0.00 37 1018.3
20260503172423 58 202 1.7 7.0 0.00 0.00 0.00 37 1018.3
20260503172317 58 186 1.7 5.2 0.00 0.00 0.00 37 1018.4
20260503172216 58 308 1.7 7.0 0.00 0.00 0.00 38 1018.3
20260503172116 58 10 2.6 8.7 0.00 0.00 0.00 38 1018.3
20260503172017 58 9 2.6 8.7 0.00 0.00 0.00 39 1018.3
20260503171917 58 9 2.6 8.7 0.00 0.00 0.00 36 1018.3
20260503171813 58 355 2.6 8.7 0.00 0.00 0.00 36 1018.3
20260503171712 58 355 2.6 8.7 0.00 0.00 0.00 36 1018.4
20260503171612 58 355 2.6 8.7 0.00 0.00 0.00 37 1018.4
20260503171511 58 0 2.6 8.7 0.00 0.00 0.00 35 1018.4
20260503171411 57 302 2.6 8.7 0.00 0.00 0.00 35 1018.6
20260503171306 58 313 2.6 8.7 0.00 0.00 0.00 34 1018.6
20260503171205 58 282 2.6 8.7 0.00 0.00 0.00 37 1018.6
20260503171105 58 337 1.7 7.8 0.00 0.00 0.00 37 1018.4
20260503171007 58 332 1.7 7.8 0.00 0.00 0.00 38 1018.4
20260503170907 58 345 1.7 7.8 0.00 0.00 0.00 38 1018.6
20260503170805 58 355 2.6 10.4 0.00 0.00 0.00 37 1018.6
20260503170706 57 317 2.6 10.4 0.00 0.00 0.00 37 1018.6
20260503170605 57 315 3.5 10.4 0.00 0.00 0.00 39 1018.6
20260503170503 57 274 3.5 10.4 0.00 0.00 0.00 37 1018.6
20260503170404 57 176 3.5 10.4 0.00 0.00 0.00 36 1018.6
20260503170303 56 323 4.3 10.4 0.00 0.00 0.00 37 1018.6
20260503170204 56 323 4.3 10.4 0.00 0.00 0.00 37 1018.6
20260503170104 56 258 4.3 10.4 0.00 0.00 0.00 39 1018.6
20260503160128 53 304 4.3 8.7 0.00 0.00 0.00 44 1019.4
20260503150923 51 314 2.6 8.7 0.00 0.00 0.00 50 1019.3
20260503150823 51 171 2.6 8.7 0.00 0.00 0.00 50 1019.3
20260503150723 51 234 2.6 8.7 0.00 0.00 0.00 49 1019.2
20260503150625 51 292 2.6 7.0 0.00 0.00 0.00 51 1019.2
20260503150525 51 284 2.6 9.6 0.00 0.00 0.00 51 1019.3
20260503150424 51 333 2.6 9.6 0.00 0.00 0.00 51 1019.2
20260503150324 51 242 2.6 9.6 0.00 0.00 0.00 53 1019.2
20260503150223 51 292 2.6 9.6 0.00 0.00 0.00 52 1019.3
20260503150124 51 325 2.6 9.6 0.00 0.00 0.00 52 1019.3
20260503140314 48 355 5.2 10.4 0.00 0.00 0.00 58 1019.3
20260503140214 48 305 4.3 9.6 0.00 0.00 0.00 61 1019.3
20260503140115 48 346 4.3 9.6 0.00 0.00 0.00 60 1019.4
20260503131353 46 22 5.2 8.7 0.00 0.00 0.00 62 1019.1
20260503131251 46 335 5.2 8.7 0.00 0.00 0.00 62 1019.1
20260503131150 46 344 5.2 8.7 0.00 0.00 0.00 63 1019.1
20260503131049 46 347 4.3 8.7 0.00 0.00 0.00 63 1019.0
20260503130947 46 290 4.3 8.7 0.00 0.00 0.00 62 1019.1
20260503130845 46 301 4.3 8.7 0.00 0.00 0.00 62 1019.0
20260503130746 46 311 4.3 8.7 0.00 0.00 0.00 62 1019.0
20260503130646 46 331 4.3 8.7 0.00 0.00 0.00 62 1019.1
20260503130546 46 5 4.3 8.7 0.00 0.00 0.00 62 1019.1
20260503130445 46 5 4.3 8.7 0.00 0.00 0.00 63 1019.1
20260503130344 46 327 4.3 8.7 0.00 0.00 0.00 64 1019.2
20260503130241 46 315 4.3 8.7 0.00 0.00 0.00 65 1019.1
20260503130141 46 344 4.3 8.7 0.00 0.00 0.00 65 1019.1
20260503120147 44 282 1.7 6.1 0.00 0.00 0.00 65 1018.6
20260503110735 41 219 1.7 5.2 0.00 0.00 0.00 71 1017.9
20260503110632 41 219 1.7 5.2 0.00 0.00 0.00 71 1017.9
20260503110529 41 250 1.7 5.2 0.00 0.00 0.00 71 1017.9
20260503110430 41 286 1.7 5.2 0.00 0.00 0.00 71 1017.8
20260503110330 41 236 1.7 6.1 0.00 0.00 0.00 71 1017.9
20260503110230 41 259 1.7 6.1 0.00 0.00 0.00 71 1017.8
20260503110121 41 279 1.7 6.1 0.00 0.00 0.00 71 1017.8
20260503100203 40 275 0.0 0.9 0.00 0.00 0.00 73 1017.3
20260503090439 42 303 5.2 10.4 0.00 0.00 0.00 69 1016.5
20260503090332 42 288 5.2 10.4 0.00 0.00 0.00 69 1016.5
20260503090234 42 311 5.2 10.4 0.00 0.00 0.00 69 1016.6
20260503090134 42 334 5.2 10.4 0.00 0.00 0.00 69 1016.6
20260503081626 42 296 6.1 10.4 0.00 0.00 0.00 69 1016.3
20260503081528 42 298 6.1 10.4 0.00 0.00 0.00 69 1016.3
20260503081427 42 302 5.2 10.4 0.00 0.00 0.00 68 1016.2
20260503081328 42 297 5.2 9.6 0.00 0.00 0.00 69 1016.2
20260503081218 42 325 6.1 11.3 0.00 0.00 0.00 69 1016.3
20260503081116 42 292 6.1 11.3 0.00 0.00 0.00 69 1016.2
20260503081018 42 309 6.1 11.3 0.00 0.00 0.00 68 1016.3
20260503080917 42 279 5.2 11.3 0.00 0.00 0.00 69 1016.2
20260503080817 42 289 5.2 11.3 0.00 0.00 0.00 69 1016.2
20260503080714 42 284 5.2 11.3 0.00 0.00 0.00 69 1016.2
20260503080611 42 300 5.2 11.3 0.00 0.00 0.00 69 1016.3
20260503080512 42 288 5.2 11.3 0.00 0.00 0.00 69 1016.3
20260503080412 42 305 5.2 11.3 0.00 0.00 0.00 69 1016.2
20260503080312 42 295 5.2 11.3 0.00 0.00 0.00 68 1016.3
20260503080205 42 309 5.2 9.6 0.00 0.00 0.00 68 1016.3
20260503080105 42 279 5.2 9.6 0.00 0.00 0.00 68 1016.3
20260503072922 43 292 2.6 5.2 0.00 0.00 0.00 68 1016.1
20260503072821 43 296 2.6 5.2 0.00 0.00 0.00 68 1016.1
20260503072722 43 318 2.6 7.8 0.00 0.00 0.00 68 1016.1
20260503072613 43 311 1.7 7.8 0.00 0.00 0.00 68 1016.1
20260503072512 43 319 2.6 7.8 0.00 0.00 0.00 68 1016.0
20260503072412 43 286 2.6 7.8 0.00 0.00 0.00 68 1016.1
20260503072311 43 279 2.6 7.8 0.00 0.00 0.00 68 1016.0
20260503072211 43 286 2.6 7.8 0.00 0.00 0.00 68 1016.0
20260503072107 43 299 2.6 7.8 0.00 0.00 0.00 68 1016.0
20260503072006 43 317 2.6 7.8 0.00 0.00 0.00 68 1016.0
20260503071907 43 323 3.5 7.8 0.00 0.00 0.00 68 1016.0
20260503071808 43 321 3.5 7.8 0.00 0.00 0.00 68 1016.0
20260503071705 43 306 4.3 7.8 0.00 0.00 0.00 67 1015.9
20260503071600 43 304 4.3 7.8 0.00 0.00 0.00 67 1016.0
20260503071458 43 288 4.3 7.8 0.00 0.00 0.00 67 1016.0
20260503071359 43 348 4.3 7.8 0.00 0.00 0.00 67 1016.0
20260503071258 43 303 4.3 7.8 0.00 0.00 0.00 67 1016.0
20260503071200 43 308 3.5 7.8 0.00 0.00 0.00 67 1015.9
20260503071049 43 303 3.5 7.8 0.00 0.00 0.00 67 1015.9
20260503070949 43 323 3.5 7.8 0.00 0.00 0.00 67 1015.9
20260503070849 44 317 3.5 7.8 0.00 0.00 0.00 67 1015.8
20260503070750 44 301 3.5 7.8 0.00 0.00 0.00 67 1015.9
20260503070649 44 311 3.5 7.8 0.00 0.00 0.00 67 1015.9
20260503070549 44 319 3.5 9.6 0.00 0.00 0.00 67 1015.9
20260503070447 44 314 4.3 9.6 0.00 0.00 0.00 67 1015.9
20260503070345 44 311 4.3 9.6 0.00 0.00 0.00 67 1015.9
20260503070245 44 319 4.3 9.6 0.00 0.00 0.00 67 1015.8
20260503070144 44 314 4.3 9.6 0.00 0.00 0.00 67 1015.8
20260503060257 43 281 1.7 3.5 0.00 0.00 0.00 68 1015.5
20260503060155 43 281 1.7 3.5 0.00 0.00 0.00 68 1015.6
20260503055031 43 306 3.5 6.1 0.00 0.00 0.00 67 1015.7
20260503054932 43 308 3.5 7.0 0.00 0.00 0.00 67 1015.6
20260503054831 43 281 2.6 7.0 0.00 0.00 0.00 67 1015.6
20260503054731 43 299 2.6 7.0 0.00 0.00 0.00 67 1015.6
20260503054630 43 302 2.6 7.0 0.00 0.00 0.00 67 1015.6
20260503054528 43 296 3.5 7.0 0.00 0.00 0.00 67 1015.6
20260503054427 43 298 2.6 7.0 0.00 0.00 0.00 67 1015.6
20260503054327 43 279 2.6 7.0 0.00 0.00 0.00 67 1015.6
20260503054228 43 306 2.6 7.0 0.00 0.00 0.00 67 1015.7
20260503054129 43 289 2.6 7.0 0.00 0.00 0.00 67 1015.6
20260503054026 43 281 2.6 7.0 0.00 0.00 0.00 67 1015.6
20260503053927 43 296 2.6 5.2 0.00 0.00 0.00 67 1015.6
20260503053828 43 305 2.6 5.2 0.00 0.00 0.00 67 1015.6
20260503053729 43 305 2.6 5.2 0.00 0.00 0.00 67 1015.7
20260503053624 43 308 1.7 5.2 0.00 0.00 0.00 67 1015.7
20260503053526 43 292 1.7 3.5 0.00 0.00 0.00 67 1015.7
20260503053425 43 285 1.7 3.5 0.00 0.00 0.00 67 1015.7
20260503053322 43 286 1.7 3.5 0.00 0.00 0.00 67 1015.6
20260503053221 43 288 1.7 3.5 0.00 0.00 0.00 67 1015.7
20260503053121 43 287 1.7 3.5 0.00 0.00 0.00 67 1015.7
20260503053018 43 287 1.7 3.5 0.00 0.00 0.00 66 1015.6
20260503052919 43 284 1.7 3.5 0.00 0.00 0.00 67 1015.6
20260503052818 43 284 1.7 3.5 0.00 0.00 0.00 66 1015.6
20260503052719 44 284 1.7 3.5 0.00 0.00 0.00 66 1015.6
20260503052618 44 290 1.7 3.5 0.00 0.00 0.00 66 1015.6
20260503052520 44 290 1.7 3.5 0.00 0.00 0.00 66 1015.5
20260503052419 44 290 1.7 3.5 0.00 0.00 0.00 67 1015.6
20260503052319 44 290 1.7 3.5 0.00 0.00 0.00 66 1015.6
20260503052218 44 290 0.9 3.5 0.00 0.00 0.00 66 1015.6
20260503052119 44 291 0.9 3.5 0.00 0.00 0.00 66 1015.5
20260503052018 44 291 1.7 3.5 0.00 0.00 0.00 65 1015.6
20260503051918 44 292 1.7 3.5 0.00 0.00 0.00 66 1015.5
20260503051819 44 292 0.9 3.5 0.00 0.00 0.00 66 1015.6
20260503051718 44 294 1.7 3.5 0.00 0.00 0.00 66 1015.6
20260503051619 44 294 1.7 3.5 0.00 0.00 0.00 66 1015.5
20260503051519 44 294 1.7 3.5 0.00 0.00 0.00 66 1015.6
20260503051420 44 294 1.7 3.5 0.00 0.00 0.00 65 1015.6
20260503051318 44 295 1.7 3.5 0.00 0.00 0.00 65 1015.5
20260503051218 44 296 1.7 3.5 0.00 0.00 0.00 65 1015.5
20260503051118 44 296 1.7 3.5 0.00 0.00 0.00 65 1015.6
20260503051018 44 283 1.7 2.6 0.00 0.00 0.00 65 1015.5
20260503050918 44 286 1.7 2.6 0.00 0.00 0.00 65 1015.5
20260503050820 44 287 1.7 3.5 0.00 0.00 0.00 65 1015.5
20260503050714 44 287 1.7 3.5 0.00 0.00 0.00 65 1015.5
20260503050616 44 287 1.7 3.5 0.00 0.00 0.00 65 1015.4
20260503050515 44 287 1.7 5.2 0.00 0.00 0.00 65 1015.4
20260503050414 44 286 1.7 5.2 0.00 0.00 0.00 65 1015.4
20260503050315 44 292 1.7 5.2 0.00 0.00 0.00 65 1015.5
20260503050215 44 309 1.7 5.2 0.00 0.00 0.00 64 1015.5
20260503050115 44 310 1.7 5.2 0.00 0.00 0.00 64 1015.5
20260503050014 44 313 1.7 5.2 0.00 0.00 0.00 64 1015.5
20260503045916 44 313 1.7 5.2 0.00 0.00 0.00 65 1015.5
20260503045814 44 276 0.9 5.2 0.00 0.00 0.00 64 1015.5
20260503045716 45 276 1.7 5.2 0.00 0.00 0.00 64 1015.5
20260503045614 44 276 1.7 5.2 0.00 0.00 0.00 65 1015.4
20260503045514 45 290 1.7 3.5 0.00 0.00 0.00 64 1015.5
20260503045414 45 293 1.7 3.5 0.00 0.00 0.00 63 1015.5
20260503045315 45 293 1.7 3.5 0.00 0.00 0.00 64 1015.6
20260503045214 45 293 1.7 3.5 0.00 0.00 0.00 63 1015.6
20260503045115 45 294 1.7 3.5 0.00 0.00 0.00 64 1015.5
20260503045014 45 294 1.7 4.3 0.00 0.00 0.00 64 1015.6
20260503044914 45 306 1.7 5.2 0.00 0.00 0.00 64 1015.6
20260503044814 45 306 2.6 5.2 0.00 0.00 0.00 63 1015.6
20260503044715 45 306 2.6 6.1 0.00 0.00 0.00 63 1015.6
20260503044614 45 306 2.6 6.1 0.00 0.00 0.00 63 1015.6
20260503044515 45 306 2.6 6.1 0.00 0.00 0.00 63 1015.7
20260503044414 45 306 2.6 6.1 0.00 0.00 0.00 63 1015.6
20260503044314 45 309 3.5 7.0 0.00 0.00 0.00 62 1015.5
20260503044216 45 309 3.5 7.0 0.00 0.00 0.00 62 1015.5
20260503044115 45 309 3.5 7.0 0.00 0.00 0.00 62 1015.6
20260503044014 45 307 3.5 7.0 0.00 0.00 0.00 62 1015.5
20260503043914 45 286 4.3 7.8 0.00 0.00 0.00 62 1015.6
20260503043814 45 289 4.3 7.8 0.00 0.00 0.00 62 1015.6
20260503043715 45 311 4.3 7.8 0.00 0.00 0.00 62 1015.5
20260503043614 45 303 4.3 8.7 0.00 0.00 0.00 61 1015.6
20260503043516 46 307 4.3 8.7 0.00 0.00 0.00 61 1015.5
20260503043411 46 289 4.3 8.7 0.00 0.00 0.00 61 1015.6
20260503043312 46 286 5.2 8.7 0.00 0.00 0.00 62 1015.5
20260503043210 46 302 5.2 8.7 0.00 0.00 0.00 61 1015.5
20260503043112 46 302 5.2 8.7 0.00 0.00 0.00 61 1015.5
20260503043011 46 288 5.2 8.7 0.00 0.00 0.00 61 1015.5
20260503042910 46 300 5.2 8.7 0.00 0.00 0.00 61 1015.4
20260503042810 46 309 5.2 8.7 0.00 0.00 0.00 60 1015.4
20260503042712 46 298 5.2 8.7 0.00 0.00 0.00 60 1015.4
20260503042611 46 267 5.2 8.7 0.00 0.00 0.00 60 1015.4
20260503042510 46 309 6.1 11.3 0.00 0.00 0.00 60 1015.4
20260503042410 46 311 6.1 11.3 0.00 0.00 0.00 60 1015.4
20260503042310 46 292 6.1 11.3 0.00 0.00 0.00 60 1015.4
20260503042211 46 319 6.1 11.3 0.00 0.00 0.00 60 1015.3
20260503042110 46 312 6.1 11.3 0.00 0.00 0.00 60 1015.4
20260503042012 46 302 6.1 11.3 0.00 0.00 0.00 60 1015.3
20260503041910 46 288 6.1 11.3 0.00 0.00 0.00 60 1015.4
20260503041811 46 302 6.1 11.3 0.00 0.00 0.00 60 1015.3
20260503041710 46 312 6.1 11.3 0.00 0.00 0.00 60 1015.3
20260503041611 46 302 6.1 11.3 0.00 0.00 0.00 60 1015.3
20260503041511 46 296 6.1 10.4 0.00 0.00 0.00 60 1015.3
20260503041412 46 319 6.1 10.4 0.00 0.00 0.00 60 1015.3
20260503041310 46 299 6.1 10.4 0.00 0.00 0.00 60 1015.1
20260503041210 46 292 6.1 10.4 0.00 0.00 0.00 60 1015.3
20260503041110 46 281 5.2 9.6 0.00 0.00 0.00 60 1015.3
20260503041011 46 325 5.2 9.6 0.00 0.00 0.00 60 1015.3
20260503040912 46 322 5.2 9.6 0.00 0.00 0.00 60 1015.3
20260503040810 46 330 5.2 8.7 0.00 0.00 0.00 60 1015.4
20260503040710 46 279 5.2 8.7 0.00 0.00 0.00 60 1015.3
20260503040610 46 288 4.3 8.7 0.00 0.00 0.00 60 1015.4
20260503040510 46 283 4.3 8.7 0.00 0.00 0.00 60 1015.3
20260503040411 46 317 4.3 8.7 0.00 0.00 0.00 60 1015.3
20260503040311 46 333 4.3 8.7 0.00 0.00 0.00 60 1015.3
20260503040211 46 313 4.3 7.8 0.00 0.00 0.00 60 1015.3
20260503040107 46 318 4.3 7.8 0.00 0.00 0.00 60 1015.3
20260503040007 46 284 4.3 7.8 0.00 0.00 0.00 60 1015.3
20260503035906 46 267 4.3 7.8 0.00 0.00 0.00 60 1015.3
20260503035807 46 304 4.3 7.8 0.00 0.00 0.00 60 1015.3
20260503035706 46 298 4.3 7.8 0.00 0.00 0.00 60 1015.3
20260503035558 46 288 4.3 7.8 0.00 0.00 0.00 59 1015.1
20260503035458 46 306 5.2 8.7 0.00 0.00 0.00 59 1015.1
20260503035359 46 300 5.2 9.6 0.00 0.00 0.00 59 1015.1
20260503035300 46 292 5.2 9.6 0.00 0.00 0.00 59 1015.3
20260503035159 46 285 5.2 9.6 0.00 0.00 0.00 59 1015.3
20260503035054 46 305 5.2 9.6 0.00 0.00 0.00 59 1015.3
20260503034954 46 294 5.2 9.6 0.00 0.00 0.00 59 1015.3
20260503034850 46 302 5.2 9.6 0.00 0.00 0.00 59 1015.3
20260503034750 46 331 5.2 9.6 0.00 0.00 0.00 59 1015.1
20260503034650 46 310 5.2 9.6 0.00 0.00 0.00 59 1015.3
20260503034550 46 297 4.3 9.6 0.00 0.00 0.00 59 1015.1
20260503034450 46 294 4.3 9.6 0.00 0.00 0.00 59 1015.3
20260503034351 46 303 4.3 7.8 0.00 0.00 0.00 59 1015.1
20260503034252 46 308 4.3 7.0 0.00 0.00 0.00 59 1015.1
20260503034150 46 301 4.3 7.0 0.00 0.00 0.00 59 1015.1
20260503034051 46 304 4.3 8.7 0.00 0.00 0.00 59 1015.0
20260503033950 46 300 5.2 8.7 0.00 0.00 0.00 59 1015.3
20260503033851 47 296 5.2 9.6 0.00 0.00 0.00 59 1015.0
20260503033751 47 299 5.2 9.6 0.00 0.00 0.00 58 1015.1
20260503033651 47 310 5.2 10.4 0.00 0.00 0.00 59 1015.1
20260503033552 47 304 6.1 10.4 0.00 0.00 0.00 58 1015.1
20260503033451 47 298 6.1 10.4 0.00 0.00 0.00 58 1015.1
20260503033245 47 273 6.1 10.4 0.00 0.00 0.00 58 1015.1
20260503033146 46 301 5.2 10.4 0.00 0.00 0.00 58 1015.1
20260503033046 46 306 5.2 10.4 0.00 0.00 0.00 58 1015.3
20260503032945 46 325 5.2 10.4 0.00 0.00 0.00 58 1015.1
20260503032845 46 298 5.2 10.4 0.00 0.00 0.00 58 1015.1
20260503032646 46 312 4.3 9.6 0.00 0.00 0.00 58 1015.1
20260503032545 46 291 3.5 9.6 0.00 0.00 0.00 59 1015.1
20260503032445 46 326 3.5 9.6 0.00 0.00 0.00 60 1015.1
20260503032346 46 311 3.5 7.0 0.00 0.00 0.00 60 1015.1
20260503032246 46 302 3.5 7.0 0.00 0.00 0.00 60 1015.0
20260503032145 46 277 2.6 7.0 0.00 0.00 0.00 60 1015.0
20260503032045 46 286 2.6 7.0 0.00 0.00 0.00 59 1015.1
20260503031944 46 308 2.6 7.0 0.00 0.00 0.00 60 1015.1
20260503031846 46 309 2.6 6.1 0.00 0.00 0.00 60 1015.1
20260503031746 46 317 2.6 6.1 0.00 0.00 0.00 59 1015.1
20260503031642 46 263 2.6 4.3 0.00 0.00 0.00 59 1015.0
20260503031542 46 294 2.6 6.1 0.00 0.00 0.00 59 1015.0
20260503031441 46 296 2.6 6.1 0.00 0.00 0.00 59 1015.0
20260503031342 46 296 2.6 6.1 0.00 0.00 0.00 59 1015.0
20260503031239 47 296 2.6 6.1 0.00 0.00 0.00 58 1014.9
20260503031135 47 294 2.6 6.1 0.00 0.00 0.00 58 1015.0
20260503031036 47 296 3.5 6.1 0.00 0.00 0.00 58 1015.0
20260503030935 47 295 3.5 6.1 0.00 0.00 0.00 58 1015.0
20260503030836 47 275 3.5 6.1 0.00 0.00 0.00 57 1015.0
20260503030733 47 296 3.5 6.1 0.00 0.00 0.00 57 1015.0
20260503030631 47 312 3.5 6.1 0.00 0.00 0.00 57 1014.9
20260503030530 47 310 3.5 6.1 0.00 0.00 0.00 57 1015.0
20260503030430 47 297 2.6 6.1 0.00 0.00 0.00 58 1015.0
20260503030331 47 296 3.5 6.1 0.00 0.00 0.00 58 1015.0
20260503030230 47 302 3.5 6.1 0.00 0.00 0.00 58 1015.0
20260503030131 47 300 3.5 6.1 0.00 0.00 0.00 57 1015.0
20260503030031 47 313 3.5 6.1 0.00 0.00 0.00 57 1015.0
20260503025931 47 302 4.3 7.0 0.00 0.00 0.00 57 1015.0
20260503025829 47 301 4.3 7.8 0.00 0.00 0.00 57 1015.0
20260503025729 47 298 4.3 7.8 0.00 0.00 0.00 57 1015.0
20260503025628 47 299 4.3 7.8 0.00 0.00 0.00 57 1015.1
20260503025530 47 299 4.3 7.8 0.00 0.00 0.00 57 1015.0
20260503025429 47 293 4.3 7.8 0.00 0.00 0.00 57 1014.9
20260503025328 47 302 4.3 7.8 0.00 0.00 0.00 56 1014.9
20260503025228 47 288 4.3 7.8 0.00 0.00 0.00 57 1014.9
20260503025130 47 282 4.3 7.8 0.00 0.00 0.00 56 1014.9
20260503025030 47 318 5.2 7.8 0.00 0.00 0.00 56 1014.9
20260503024930 47 290 4.3 7.8 0.00 0.00 0.00 56 1014.9
20260503024829 47 301 4.3 7.8 0.00 0.00 0.00 57 1014.9
20260503024726 47 313 4.3 7.8 0.00 0.00 0.00 56 1014.9
20260503024625 47 306 5.2 7.8 0.00 0.00 0.00 56 1014.8
20260503024525 47 307 5.2 7.8 0.00 0.00 0.00 56 1014.9
20260503024426 47 309 5.2 7.8 0.00 0.00 0.00 56 1014.8
20260503024325 47 284 5.2 7.8 0.00 0.00 0.00 56 1014.8
20260503024224 47 299 5.2 7.8 0.00 0.00 0.00 56 1014.8
20260503024126 47 313 4.3 7.8 0.00 0.00 0.00 56 1014.8
20260503024024 47 301 4.3 7.8 0.00 0.00 0.00 56 1014.8
20260503023925 47 306 4.3 7.8 0.00 0.00 0.00 56 1014.9
20260503023826 47 284 4.3 7.8 0.00 0.00 0.00 56 1014.8
20260503023725 47 286 4.3 7.8 0.00 0.00 0.00 56 1014.8
20260503023625 47 292 4.3 7.8 0.00 0.00 0.00 56 1014.9
20260503023524 47 303 4.3 7.8 0.00 0.00 0.00 56 1014.8
20260503023425 47 284 4.3 7.8 0.00 0.00 0.00 57 1014.8
20260503023325 47 297 4.3 7.8 0.00 0.00 0.00 56 1014.8
20260503023224 47 294 3.5 7.8 0.00 0.00 0.00 56 1014.9
20260503023125 47 290 3.5 7.8 0.00 0.00 0.00 56 1014.9
20260503023024 47 285 3.5 7.0 0.00 0.00 0.00 56 1014.9
20260503022925 47 302 3.5 7.0 0.00 0.00 0.00 56 1014.9
20260503022824 47 306 3.5 7.0 0.00 0.00 0.00 56 1014.9
20260503022725 47 306 3.5 7.0 0.00 0.00 0.00 56 1014.8
20260503022625 47 307 3.5 7.0 0.00 0.00 0.00 56 1014.9
20260503022525 47 317 3.5 7.0 0.00 0.00 0.00 56 1015.0
20260503022425 47 288 3.5 7.0 0.00 0.00 0.00 56 1014.8
20260503022325 47 300 4.3 7.0 0.00 0.00 0.00 57 1014.9
20260503022226 47 292 4.3 7.0 0.00 0.00 0.00 57 1014.8
20260503022124 47 298 4.3 7.0 0.00 0.00 0.00 56 1014.9
20260503022025 47 292 4.3 8.7 0.00 0.00 0.00 56 1014.8
20260503021924 47 294 5.2 8.7 0.00 0.00 0.00 56 1014.8
20260503021824 48 286 5.2 8.7 0.00 0.00 0.00 56 1014.9
20260503021726 48 304 5.2 8.7 0.00 0.00 0.00 55 1014.8
20260503021624 48 285 5.2 8.7 0.00 0.00 0.00 55 1014.9
20260503021525 48 306 5.2 8.7 0.00 0.00 0.00 55 1014.8
20260503021421 48 333 6.1 8.7 0.00 0.00 0.00 55 1014.9
20260503021320 48 289 6.1 8.7 0.00 0.00 0.00 55 1014.9
20260503021221 48 290 6.1 12.2 0.00 0.00 0.00 55 1014.8
20260503021121 48 302 6.1 12.2 0.00 0.00 0.00 55 1015.0
20260503021021 48 306 6.1 12.2 0.00 0.00 0.00 55 1014.9
20260503020920 48 311 6.1 12.2 0.00 0.00 0.00 55 1014.9
20260503020820 48 300 6.1 12.2 0.00 0.00 0.00 55 1014.8
20260503020722 48 290 6.1 12.2 0.00 0.00 0.00 55 1014.8
20260503020621 48 286 7.0 12.2 0.00 0.00 0.00 55 1014.8
20260503020520 48 320 7.0 12.2 0.00 0.00 0.00 54 1014.9
20260503020420 48 284 7.0 12.2 0.00 0.00 0.00 54 1014.8
20260503020321 48 329 7.0 12.2 0.00 0.00 0.00 54 1014.8
20260503020220 48 293 7.0 13.0 0.00 0.00 0.00 54 1014.8
20260503020122 48 305 7.8 13.0 0.00 0.00 0.00 54 1014.8
20260503020021 48 319 7.8 13.0 0.00 0.00 0.00 54 1014.8
20260503015920 48 305 7.8 13.0 0.00 0.00 0.00 54 1014.7
20260503015820 48 294 7.8 13.0 0.00 0.00 0.00 54 1014.8
20260503015720 48 290 7.8 13.0 0.00 0.00 0.00 54 1014.7
20260503015620 48 338 7.8 13.0 0.00 0.00 0.00 54 1014.7
20260503015521 48 331 7.8 13.0 0.00 0.00 0.00 54 1014.7
20260503015421 48 333 7.8 13.0 0.00 0.00 0.00 54 1014.6
20260503015321 48 317 7.8 13.0 0.00 0.00 0.00 54 1014.6
20260503015220 48 317 7.8 13.0 0.00 0.00 0.00 54 1014.6
20260503015120 48 317 7.8 12.2 0.00 0.00 0.00 54 1014.6
20260503015022 48 286 7.8 12.2 0.00 0.00 0.00 54 1014.6
20260503014922 48 300 7.8 12.2 0.00 0.00 0.00 53 1014.6
20260503014821 48 323 7.8 12.2 0.00 0.00 0.00 54 1014.5
20260503014720 48 341 7.8 12.2 0.00 0.00 0.00 54 1014.6
20260503014620 48 310 7.0 12.2 0.00 0.00 0.00 54 1014.5
20260503014521 49 300 7.0 12.2 0.00 0.00 0.00 54 1014.5
20260503014420 49 285 7.8 13.9 0.00 0.00 0.00 54 1014.6
20260503014322 48 306 7.8 13.9 0.00 0.00 0.00 53 1014.6
20260503014222 49 283 7.8 13.9 0.00 0.00 0.00 53 1014.5
20260503014117 49 286 7.8 13.9 0.00 0.00 0.00 54 1014.6
20260503014017 49 345 7.8 13.9 0.00 0.00 0.00 54 1014.5
20260503013917 49 297 8.7 13.9 0.00 0.00 0.00 54 1014.6
20260503013817 49 289 8.7 13.9 0.00 0.00 0.00 54 1014.5
20260503013716 49 302 8.7 13.9 0.00 0.00 0.00 54 1014.4
20260503013616 49 322 8.7 13.9 0.00 0.00 0.00 53 1014.4
20260503013517 49 313 9.6 14.8 0.00 0.00 0.00 53 1014.3
20260503013416 49 295 8.7 14.8 0.00 0.00 0.00 53 1014.3
20260503013316 49 296 9.6 14.8 0.00 0.00 0.00 53 1014.3
20260503013216 49 288 9.6 16.5 0.00 0.00 0.00 53 1014.3
20260503013117 49 321 10.4 16.5 0.00 0.00 0.00 53 1014.3
20260503013016 49 321 10.4 16.5 0.00 0.00 0.00 53 1014.3
20260503012917 49 313 10.4 16.5 0.00 0.00 0.00 53 1014.3
20260503012817 49 319 10.4 16.5 0.00 0.00 0.00 52 1014.2
20260503012718 49 302 10.4 16.5 0.00 0.00 0.00 53 1014.3
20260503012616 49 334 10.4 16.5 0.00 0.00 0.00 52 1014.2
20260503012516 49 317 10.4 16.5 0.00 0.00 0.00 53 1014.1
20260503012417 49 297 10.4 16.5 0.00 0.00 0.00 53 1014.1
20260503012316 49 310 10.4 16.5 0.00 0.00 0.00 53 1014.1
20260503012217 49 328 10.4 14.8 0.00 0.00 0.00 53 1014.0
20260503012116 49 313 10.4 14.8 0.00 0.00 0.00 53 1014.1
20260503012017 49 312 9.6 14.8 0.00 0.00 0.00 53 1014.0
20260503011916 49 312 9.6 14.8 0.00 0.00 0.00 54 1014.0
20260503011816 49 300 9.6 14.8 0.00 0.00 0.00 54 1014.0
20260503011717 49 317 8.7 14.8 0.00 0.00 0.00 54 1014.0
20260503011617 49 302 8.7 14.8 0.00 0.00 0.00 54 1014.0
20260503011509 49 275 7.8 14.8 0.00 0.00 0.00 55 1014.1
20260503011410 49 310 7.8 14.8 0.00 0.00 0.00 55 1014.0
20260503011310 49 313 7.8 14.8 0.00 0.00 0.00 55 1014.0
20260503011209 49 325 7.8 13.0 0.00 0.00 0.00 55 1014.0
20260503011108 49 325 7.8 12.2 0.00 0.00 0.00 55 1014.0
20260503011008 49 296 7.8 12.2 0.00 0.00 0.00 55 1014.0
20260503010908 49 286 7.8 12.2 0.00 0.00 0.00 55 1014.0
20260503010809 49 267 7.8 12.2 0.00 0.00 0.00 55 1014.0
20260503010708 49 328 7.8 12.2 0.00 0.00 0.00 56 1014.0
20260503010609 49 309 7.8 12.2 0.00 0.00 0.00 55 1014.0
20260503010508 49 319 7.8 12.2 0.00 0.00 0.00 55 1013.9
20260503010408 49 318 7.8 12.2 0.00 0.00 0.00 55 1014.0
20260503010310 49 302 8.7 12.2 0.00 0.00 0.00 55 1014.0
20260503010208 49 317 7.8 12.2 0.00 0.00 0.00 55 1014.0
20260503010109 49 289 7.8 12.2 0.00 0.00 0.00 55 1013.9
20260503010008 49 290 7.8 12.2 0.00 0.00 0.00 55 1013.9
20260503005908 49 298 7.8 10.4 0.00 0.00 0.00 55 1014.0
20260503005808 49 305 7.0 10.4 0.00 0.00 0.00 55 1013.8
20260503005709 49 309 7.0 10.4 0.00 0.00 0.00 55 1013.8
20260503005609 49 281 7.0 10.4 0.00 0.00 0.00 55 1013.9
20260503005508 49 325 7.0 10.4 0.00 0.00 0.00 55 1013.8
20260503005408 49 331 6.1 10.4 0.00 0.00 0.00 55 1013.8
20260503005310 49 311 6.1 10.4 0.00 0.00 0.00 55 1013.8
20260503005208 49 308 6.1 10.4 0.00 0.00 0.00 55 1013.8
20260503005109 49 332 6.1 10.4 0.00 0.00 0.00 55 1013.8
20260503005010 49 274 6.1 10.4 0.00 0.00 0.00 55 1013.7
20260503004908 49 300 6.1 10.4 0.00 0.00 0.00 55 1013.7
20260503004809 50 324 6.1 10.4 0.00 0.00 0.00 55 1013.9
20260503004708 50 311 6.1 10.4 0.00 0.00 0.00 55 1013.7
20260503004608 50 319 6.1 9.6 0.00 0.00 0.00 55 1013.7
20260503004509 50 315 6.1 9.6 0.00 0.00 0.00 55 1013.8
20260503004410 50 297 6.1 9.6 0.00 0.00 0.00 55 1013.7
20260503004309 50 304 6.1 9.6 0.00 0.00 0.00 55 1013.5
20260503004204 50 327 6.1 9.6 0.00 0.00 0.00 55 1013.7
20260503004105 50 296 7.0 8.7 0.00 0.00 0.00 55 1013.7
20260503004004 50 304 7.0 9.6 0.00 0.00 0.00 55 1013.5
20260503003904 50 292 7.0 9.6 0.00 0.00 0.00 55 1013.5
20260503003805 50 298 7.0 11.3 0.00 0.00 0.00 54 1013.7
20260503003705 50 304 7.0 13.0 0.00 0.00 0.00 54 1013.7
20260503003606 50 313 7.0 13.0 0.00 0.00 0.00 54 1013.7
20260503003502 50 292 7.8 13.0 0.00 0.00 0.00 54 1013.5
20260503003402 50 286 7.8 13.0 0.00 0.00 0.00 54 1013.5
20260503003302 50 308 7.8 13.0 0.00 0.00 0.00 53 1013.4
20260503003203 50 275 7.8 13.0 0.00 0.00 0.00 53 1013.5
20260503003103 50 313 7.8 13.0 0.00 0.00 0.00 54 1013.4
20260503003002 50 309 7.8 13.0 0.00 0.00 0.00 53 1013.4
20260503002902 51 309 7.8 13.0 0.00 0.00 0.00 53 1013.4
20260503002804 51 301 7.8 13.0 0.00 0.00 0.00 53 1013.3
20260503002703 51 319 7.8 11.3 0.00 0.00 0.00 53 1013.3
20260503002602 51 298 7.8 11.3 0.00 0.00 0.00 53 1013.3
20260503002456 51 317 7.8 11.3 0.00 0.00 0.00 53 1013.3
20260503002358 51 306 7.8 11.3 0.00 0.00 0.00 53 1013.3
20260503002259 51 315 7.8 12.2 0.00 0.00 0.00 53 1013.2
20260503002157 51 327 7.8 12.2 0.00 0.00 0.00 53 1013.3
20260503002056 51 307 7.8 12.2 0.00 0.00 0.00 53 1013.3
20260503001954 51 318 8.7 12.2 0.00 0.00 0.00 53 1013.2
20260503001854 51 321 8.7 12.2 0.00 0.00 0.00 52 1013.2
20260503001754 51 317 8.7 13.0 0.00 0.00 0.00 52 1013.3
20260503001655 51 312 8.7 13.0 0.00 0.00 0.00 52 1013.2
20260503001554 51 299 8.7 13.0 0.00 0.00 0.00 52 1013.1
20260503001455 51 311 8.7 13.0 0.00 0.00 0.00 51 1013.1
20260503001354 51 320 8.7 13.0 0.00 0.00 0.00 51 1013.2
20260503001252 51 283 8.7 13.0 0.00 0.00 0.00 52 1013.0
20260503001152 51 317 8.7 13.0 0.00 0.00 0.00 51 1013.1
20260503001052 51 331 8.7 13.0 0.00 0.00 0.00 52 1013.1
20260503000951 51 342 8.7 13.0 0.00 0.00 0.00 51 1013.0
20260503000850 51 323 7.8 13.0 0.00 0.00 0.00 52 1013.1
20260503000748 51 316 8.7 12.2 0.00 0.00 0.00 51 1013.0
20260503000648 51 311 8.7 12.2 0.00 0.00 0.00 51 1013.0
20260503000548 51 316 8.7 12.2 0.00 0.00 0.00 51 1013.0
20260503000450 52 322 8.7 13.9 0.00 0.00 0.00 51 1013.1
20260503000348 52 304 8.7 13.9 0.00 0.00 0.00 51 1013.0
20260503000243 52 292 8.7 13.9 0.00 0.00 0.00 51 1013.0
20260503000142 52 310 8.7 13.9 0.00 0.00 0.00 51 1013.0
20260503000044 52 333 8.7 13.9 0.00 0.00 0.00 51 1012.9
20260502235943 52 306 8.7 13.9 0.00 0.00 0.00 51 1013.0
20260502235843 52 309 9.6 13.9 0.00 0.00 0.00 50 1012.9
20260502235738 52 302 9.6 13.9 0.00 0.00 0.00 50 1012.9
20260502235638 52 318 9.6 13.9 0.00 0.00 0.00 50 1012.9
20260502235539 52 311 8.7 13.9 0.00 0.00 0.00 50 1013.0
20260502235439 52 298 9.6 13.9 0.00 0.00 0.00 50 1012.9
20260502235339 52 293 9.6 15.6 0.00 0.00 0.00 50 1012.9
20260502235238 52 299 9.6 15.6 0.00 0.00 0.00 50 1012.9
20260502235138 52 320 9.6 15.6 0.00 0.00 0.00 50 1012.8
20260502235038 52 273 10.4 15.6 0.00 0.00 0.00 50 1012.8
20260502234938 53 338 10.4 15.6 0.00 0.00 0.00 49 1012.8
20260502234839 53 317 10.4 18.2 0.00 0.00 0.00 50 1012.8
20260502234739 53 271 10.4 18.2 0.00 0.00 0.00 50 1012.7
20260502234636 53 308 10.4 18.2 0.00 0.00 0.00 50 1012.7
20260502234534 53 345 10.4 18.2 0.00 0.00 0.00 49 1012.7
20260502234435 53 280 10.4 18.2 0.00 0.00 0.00 49 1012.6
20260502234334 53 306 9.6 18.2 0.00 0.00 0.00 49 1012.7
20260502234234 53 284 9.6 18.2 0.00 0.00 0.00 49 1012.7
20260502234135 53 299 9.6 18.2 0.00 0.00 0.00 49 1012.6
20260502234034 53 310 9.6 18.2 0.00 0.00 0.00 49 1012.5
20260502233934 53 327 9.6 18.2 0.00 0.00 0.00 49 1012.6
20260502233835 53 333 9.6 15.6 0.00 0.00 0.00 49 1012.6
20260502233734 53 338 9.6 15.6 0.00 0.00 0.00 49 1012.6
20260502233634 53 310 10.4 16.5 0.00 0.00 0.00 48 1012.5
20260502233534 53 315 10.4 16.5 0.00 0.00 0.00 49 1012.5
20260502233433 53 307 10.4 16.5 0.00 0.00 0.00 49 1012.6
20260502233332 53 338 10.4 16.5 0.00 0.00 0.00 48 1012.4
20260502233232 53 306 10.4 16.5 0.00 0.00 0.00 47 1012.5
20260502233131 54 333 10.4 16.5 0.00 0.00 0.00 47 1012.5
20260502233027 54 335 10.4 16.5 0.00 0.00 0.00 47 1012.4
20260502232926 54 306 10.4 16.5 0.00 0.00 0.00 47 1012.4
20260502232825 54 296 10.4 16.5 0.00 0.00 0.00 47 1012.4
20260502232728 54 326 9.6 15.6 0.00 0.00 0.00 47 1012.3
20260502232627 54 309 9.6 15.6 0.00 0.00 0.00 47 1012.4
20260502232527 54 319 8.7 15.6 0.00 0.00 0.00 47 1012.4
20260502232427 54 296 8.7 15.6 0.00 0.00 0.00 47 1012.4
20260502232321 54 346 8.7 15.6 0.00 0.00 0.00 47 1012.4
20260502232222 55 275 8.7 15.6 0.00 0.00 0.00 47 1012.4
20260502232121 55 344 8.7 15.6 0.00 0.00 0.00 47 1012.3
20260502232020 55 330 8.7 16.5 0.00 0.00 0.00 47 1012.4
20260502231921 55 314 8.7 16.5 0.00 0.00 0.00 47 1012.3
20260502231815 55 319 9.6 16.5 0.00 0.00 0.00 47 1012.3
20260502231715 55 327 9.6 16.5 0.00 0.00 0.00 47 1012.3
20260502231615 55 339 9.6 16.5 0.00 0.00 0.00 46 1012.2
20260502231515 55 296 9.6 16.5 0.00 0.00 0.00 46 1012.3
20260502231414 55 313 10.4 16.5 0.00 0.00 0.00 46 1012.2
20260502231310 55 278 10.4 16.5 0.00 0.00 0.00 46 1012.3
20260502231209 55 325 10.4 16.5 0.00 0.00 0.00 46 1012.2
20260502231108 55 312 9.6 16.5 0.00 0.00 0.00 46 1012.3
20260502231009 55 295 9.6 16.5 0.00 0.00 0.00 46 1012.3
20260502230908 55 294 9.6 16.5 0.00 0.00 0.00 45 1012.3
20260502230808 55 307 9.6 16.5 0.00 0.00 0.00 45 1012.2
20260502230709 55 297 9.6 16.5 0.00 0.00 0.00 45 1012.3
20260502230609 55 297 8.7 16.5 0.00 0.00 0.00 46 1012.2
20260502230508 55 292 8.7 16.5 0.00 0.00 0.00 46 1012.2
20260502230408 55 323 8.7 16.5 0.00 0.00 0.00 46 1012.2
20260502230306 55 334 8.7 16.5 0.00 0.00 0.00 46 1012.3
20260502230206 55 283 8.7 16.5 0.00 0.00 0.00 47 1012.2
20260502230106 55 302 7.8 16.5 0.00 0.00 0.00 47 1012.2
20260502230006 55 267 7.8 16.5 0.00 0.00 0.00 47 1012.2
20260502225906 55 315 7.0 13.9 0.00 0.00 0.00 47 1012.3
20260502225807 55 331 7.8 13.9 0.00 0.00 0.00 47 1012.3
20260502225706 55 298 8.7 13.9 0.00 0.00 0.00 47 1012.2
20260502225602 55 307 8.7 16.5 0.00 0.00 0.00 47 1012.2
20260502225502 55 317 8.7 16.5 0.00 0.00 0.00 48 1012.1
20260502225403 55 309 9.6 16.5 0.00 0.00 0.00 47 1012.2
20260502225304 55 312 9.6 16.5 0.00 0.00 0.00 47 1012.2
20260502225202 55 304 9.6 16.5 0.00 0.00 0.00 47 1012.1
20260502225102 55 314 10.4 16.5 0.00 0.00 0.00 47 1012.2
20260502225004 55 333 10.4 16.5 0.00 0.00 0.00 46 1012.2
20260502224902 55 320 11.3 17.4 0.00 0.00 0.00 47 1012.2
20260502224802 55 302 10.4 17.4 0.00 0.00 0.00 46 1012.1
20260502224700 55 316 10.4 17.4 0.00 0.00 0.00 46 1012.2
20260502224600 55 292 10.4 17.4 0.00 0.00 0.00 46 1012.1
20260502224500 55 320 10.4 17.4 0.00 0.00 0.00 45 1012.1
20260502224400 55 313 10.4 17.4 0.00 0.00 0.00 46 1012.1
20260502224301 55 298 10.4 17.4 0.00 0.00 0.00 46 1012.1
20260502224201 55 327 10.4 17.4 0.00 0.00 0.00 45 1012.1
20260502224100 55 286 10.4 17.4 0.00 0.00 0.00 45 1012.1
20260502224001 56 317 10.4 17.4 0.00 0.00 0.00 45 1012.1
20260502223855 56 327 10.4 17.4 0.00 0.00 0.00 45 1012.0
20260502223755 56 333 10.4 17.4 0.00 0.00 0.00 45 1012.1